User: anonymous   Login
Location: Unspecified
(0.0000°N, 0.0000°E)
Time: 18:28:29
(UTC+00:00)
Language:

Kosmos-2044 - Orbit

View from above orbital plane
View from above orbital plane
View from above satellite
View from above satellite

Ground track
Ground track

The orbit data is extracted from the following two-line orbital elements,

1 20242U 89075  A 89271.91910735  .00392374 -10700-4 +11056-3   00359
2 20242 082.3202 102.1072 0028181 060.2745 300.1368 16.26505095002211
Epoch (UTC): 28 September 1989 22:03:30
Eccentricity: 0.0028181
inclination: 82.3202°
perigee height: 183 km
apogee height: 220 km
right ascension of ascending node: 102.1072°
argument of perigee: 60.2745°
revolutions per day: 16.26505095
mean anomaly at epoch: 300.1368°
orbit number at epoch: 221

The dashed part of the orbit path shows where the satellite is in the earth's shadow,  

DLR